Date String (YYYY-MM-DD hh:mm:ss) UTC,Instrument flags,Ambient pressure (hPa),Sample flow (lpm),Bypass flow (lpm),Sample temperature (°C),Ambient temperature (°C),ASC tube jacket temperature (°C),LED temperature (°C),Box temperature (°C),Sample RH (%),Span deviation,Mass concentration (μg/m³),Mass concentration (μg/m³),Mass concentration (μg/m³)
DateTimeUTC,F1_M11,P_M11,Q1_M11,Q2_M11,T1_M11,T2_M11,T3_M11,T4_M11,T5_M11,U1_M11,ZSPAN_M11,X0_M11,X2_M11,X1_M11
2021-12-06 05:00:00,,0830.9,4.99,0.00,21.4,20.3,00.0,30.7,22.9,09.1,0000.0,0009.20,0001.73,0000.97
2021-12-06 05:01:00,,0830.9,5.01,0.00,21.3,20.2,00.0,30.7,22.8,09.0,0000.0,0009.10,0001.76,0000.97
2021-12-06 05:02:00,,0830.9,4.99,0.00,21.3,20.2,00.0,30.6,22.8,09.0,0000.0,0009.04,0001.74,0000.96
2021-12-06 05:03:00,,0830.9,5.00,0.00,21.3,20.6,00.0,30.6,22.9,09.0,0000.0,0009.08,0001.76,0000.97
2021-12-06 05:04:00,,0830.9,5.01,0.00,21.5,21.6,00.0,30.6,23.2,08.9,0000.0,0008.98,0001.71,0000.98
2021-12-06 05:05:00,,0831.0,5.00,0.00,21.6,22.5,00.0,30.7,23.5,08.9,0000.0,0008.78,0001.66,0000.98
2021-12-06 05:06:00,,0831.0,4.98,0.00,21.7,22.4,00.0,30.7,23.6,08.8,0000.0,0008.81,0001.66,0000.99
2021-12-06 05:07:00,,0830.9,5.01,0.00,21.7,22.1,00.0,30.7,23.5,08.8,0000.0,0008.85,0001.73,0000.99
2021-12-06 05:08:00,,0830.9,5.01,0.00,21.7,21.8,00.0,30.7,23.4,08.8,0000.0,0008.41,0001.73,0000.99
2021-12-06 05:09:00,,0830.9,5.00,0.00,21.6,21.5,00.0,30.7,23.2,08.8,0000.0,0007.75,0001.78,0001.00
2021-12-06 05:10:00,,0830.9,5.00,0.00,21.6,21.3,00.0,30.7,23.2,08.9,0000.0,0007.28,0001.83,0001.00
2021-12-06 05:11:00,,0830.8,4.99,0.00,21.6,21.0,00.0,30.7,23.1,08.9,0000.0,0006.19,0001.81,0001.01
2021-12-06 05:12:00,,0830.9,4.99,0.00,21.5,20.8,00.0,30.7,23.0,08.9,0000.0,0006.28,0001.84,0001.02
2021-12-06 05:13:00,,0831.1,5.01,0.00,21.5,20.6,00.0,30.6,23.0,08.9,0000.0,0005.40,0001.86,0001.03
2021-12-06 05:14:00,,0831.0,5.00,0.00,21.4,20.6,00.0,30.6,23.0,08.9,0000.0,0004.98,0001.84,0001.02
2021-12-06 05:15:00,,0831.1,4.99,0.00,21.4,20.6,00.0,30.6,23.0,08.9,0000.0,0005.64,0001.89,0001.02
2021-12-06 05:16:00,,0831.1,5.01,0.00,21.4,20.6,00.0,30.6,22.9,08.9,0000.0,0006.07,0001.99,0001.03
2021-12-06 05:17:00,,0831.0,5.00,0.00,21.4,20.6,00.0,30.6,22.9,08.9,0000.0,0006.03,0001.99,0001.02
2021-12-06 05:18:00,,0831.0,4.99,0.00,21.3,20.6,00.0,30.5,22.8,09.0,0000.0,0005.30,0001.90,0001.01
2021-12-06 05:19:00,,0831.1,5.00,0.00,21.3,20.6,00.0,30.5,22.8,09.0,0000.0,0005.44,0001.90,0001.00
2021-12-06 05:20:00,,0831.0,5.00,0.00,21.3,20.6,00.0,30.5,22.8,09.0,0000.0,0005.33,0001.84,0001.00
2021-12-06 05:21:00,,0831.0,5.00,0.00,21.3,21.2,00.0,30.5,23.0,09.0,0000.0,0005.49,0001.76,0001.00
2021-12-06 05:22:00,,0831.0,5.02,0.00,21.5,22.0,00.0,30.5,23.3,08.9,0000.0,0006.10,0001.78,0001.00
2021-12-06 05:23:00,,0831.0,5.00,0.00,21.7,22.6,00.0,30.6,23.6,08.8,0000.0,0005.88,0001.74,0001.00
2021-12-06 05:24:00,,0830.9,5.00,0.00,21.7,22.3,00.0,30.6,23.6,08.8,0000.0,0006.49,0001.74,0001.01
2021-12-06 05:25:00,,0831.0,4.99,0.00,21.7,22.0,00.0,30.6,23.5,08.8,0000.0,0006.92,0001.74,0001.02
2021-12-06 05:26:00,,0831.0,5.00,0.00,21.7,21.8,00.0,30.6,23.4,08.8,0000.0,0006.54,0001.73,0001.02
2021-12-06 05:27:00,,0831.0,5.00,0.00,21.6,21.5,00.0,30.6,23.2,08.8,0000.0,0005.93,0001.62,0001.01
2021-12-06 05:28:00,,0831.0,5.01,0.00,21.6,21.3,00.0,30.6,23.2,08.8,0000.0,0005.55,0001.59,0001.02
2021-12-06 05:29:00,,0830.9,4.99,0.00,21.6,21.1,00.0,30.6,23.1,08.9,0000.0,0005.52,0001.58,0001.03
2021-12-06 05:30:00,,0830.9,5.00,0.00,21.5,20.9,00.0,30.6,23.0,08.9,0000.0,0006.27,0001.55,0001.04
2021-12-06 05:31:00,,0831.0,4.99,0.00,21.5,20.8,00.0,30.6,23.0,08.9,0000.0,0006.14,0001.56,0001.04
2021-12-06 05:32:00,,0831.0,5.00,0.00,21.4,20.7,00.0,30.6,22.9,08.9,0000.0,0005.95,0001.62,0001.05
2021-12-06 05:33:00,,0831.0,5.00,0.00,21.4,20.6,00.0,30.5,22.9,08.9,0000.0,0005.41,0001.63,0001.06
2021-12-06 05:34:00,,0831.0,4.99,0.00,21.3,20.5,00.0,30.5,22.8,09.0,0000.0,0006.58,0001.64,0001.07
2021-12-06 05:35:00,,0831.1,4.99,0.00,21.3,20.4,00.0,30.5,22.7,09.0,0000.0,0006.27,0001.67,0001.07
2021-12-06 05:36:00,,0831.1,5.02,0.00,21.3,20.7,00.0,30.5,22.8,09.0,0000.0,0005.83,0001.71,0001.07
2021-12-06 05:37:00,,0831.1,4.99,0.00,21.4,21.6,00.0,30.5,23.1,09.0,0000.0,0006.06,0001.76,0001.07
2021-12-06 05:38:00,,0831.1,5.02,0.00,21.6,22.4,00.0,30.6,23.5,08.9,0000.0,0006.78,0001.82,0001.08
2021-12-06 05:39:00,,0831.1,5.00,0.00,21.6,22.2,00.0,30.6,23.5,08.9,0000.0,0007.39,0001.87,0001.07
2021-12-06 05:40:00,,0831.1,4.99,0.00,21.6,21.7,00.0,30.6,23.4,08.9,0000.0,0007.48,0001.93,0001.07
2021-12-06 05:41:00,,0831.1,5.02,0.00,21.6,21.5,00.0,30.6,23.2,08.9,0000.0,0007.33,0001.96,0001.08
2021-12-06 05:42:00,,0831.1,5.01,0.00,21.5,21.3,00.0,30.6,23.1,08.9,0000.0,0007.75,0001.95,0001.09
2021-12-06 05:43:00,,0831.2,5.00,0.00,21.5,21.2,00.0,30.6,23.1,08.9,0000.0,0007.69,0001.90,0001.08
2021-12-06 05:44:00,,0831.2,4.99,0.00,21.5,20.9,00.0,30.6,23.0,08.9,0000.0,0007.66,0001.87,0001.08
2021-12-06 05:45:00,,0831.2,5.01,0.00,21.4,20.7,00.0,30.5,22.9,09.0,0000.0,0007.43,0001.89,0001.08
2021-12-06 05:46:00,,0831.2,4.99,0.00,21.4,20.6,00.0,30.5,22.9,09.0,0000.0,0007.33,0001.87,0001.07
2021-12-06 05:47:00,,0831.2,5.01,0.00,21.3,20.5,00.0,30.5,22.8,09.0,0000.0,0007.33,0001.87,0001.06
2021-12-06 05:48:00,,0831.2,5.00,0.00,21.3,20.3,00.0,30.5,22.8,09.1,0000.0,0007.55,0001.84,0001.07
2021-12-06 05:49:00,,0831.2,4.98,0.00,21.2,20.2,00.0,30.4,22.7,09.1,0000.0,0007.73,0001.84,0001.08
2021-12-06 05:50:00,,0831.2,5.00,0.00,21.2,20.2,00.0,30.4,22.7,09.1,0000.0,0007.24,0001.80,0001.09
2021-12-06 05:51:00,,0831.2,4.99,0.00,21.1,20.1,00.0,30.4,22.6,09.1,0000.0,0007.10,0001.73,0001.08
2021-12-06 05:52:00,,0831.2,5.00,0.00,21.1,20.4,00.0,30.4,22.7,09.1,0000.0,0008.21,0001.71,0001.08
2021-12-06 05:53:00,,0831.2,5.01,0.00,21.2,21.4,00.0,30.4,23.0,09.0,0000.0,0008.34,0001.71,0001.08
2021-12-06 05:54:00,,0831.2,5.00,0.00,21.4,22.4,00.0,30.4,23.4,09.0,0000.0,0008.34,0001.74,0001.09
2021-12-06 05:55:00,,0831.2,5.01,0.00,21.6,22.4,00.0,30.5,23.5,08.9,0000.0,0008.92,0001.77,0001.09
2021-12-06 05:56:00,,0831.2,4.99,0.00,21.6,21.9,00.0,30.5,23.4,08.9,0000.0,0008.89,0001.73,0001.09
2021-12-06 05:57:00,,0831.2,5.00,0.00,21.5,21.7,00.0,30.5,23.2,08.9,0000.0,0009.38,0001.70,0001.09
2021-12-06 05:58:00,,0831.2,5.00,0.00,21.5,21.5,00.0,30.5,23.1,08.9,0000.0,0009.62,0001.65,0001.09
2021-12-06 05:59:00,,0831.2,4.99,0.00,21.4,21.3,00.0,30.5,23.0,08.9,0000.0,0009.42,0001.65,0001.08
